Location: North Bay Shore
(40.7362°N, 73.2626°W)
Time: 04:18:42
(UTC+00:00)

Cosmos 1939 Rocket - Pass Details

Date: 29 October 2020
Orbit: 532 x 584 km, 97.4° (Epoch: 29 November)

Event Time Altitude Azimuth Distance (km) Brightness Sun altitude
Rises 23:16:00 0° 175° (S) 2,730 6.4 -16.4°
Reaches altitude 10° 23:18:10 10° 178° (S) 1,831 5.5 -16.8°
Maximum altitude 23:22:05 61° 259° (W) 627 3.3 -17.5°
Drops below altitude 10° 23:25:58 10° 341° (NNW) 1,817 5.7 -18.2°
Sets 23:28:06 0° 345° (NNW) 2,707 6.5 -18.7°
